Regional Weather Roundup
Issued by NWS

Home | Current Version | Previous Version | Text Only | Print | Product List | Glossary On
Versions: 1 2 3 4 5 6 7 8 9 10 11 12 13 14 15 16 17 18 19 20 21 22 23 24 25 26 27 28 29 30 31 32 33 34 35 36 37 38 39 40 41 42 43 44 45 46 47 48 49 50
000
ASUS43 KBIS 250010
RWRND

NORTH DAKOTA REGIONAL WEATHER ROUNDUP
NATIONAL WEATHER SERVICE BISMARCK ND
600 PM CST TUE JAN 24 2017

NOTE: "FAIR" INDICATES FEW OR NO CLOUDS BELOW 12,000 FEET WITH NO
SIGNIFICANT WEATHER AND/OR OBSTRUCTIONS TO VISIBILITY.


NDZ001>003-009>011-017-250100-
NORTHWEST NORTH DAKOTA

CITY           SKY/WX    TMP DP  RH WIND       PRES   REMARKS
WILLISTON      CLOUDY    18  12  77 NW10      29.95R WCI   6
6HR MIN TEMP:  18; 6HR MAX TEMP:  21; 6HR PCP: TRACE;

MINOT          CLOUDY    21  16  81 W13       29.91R WCI   9
MINOT AFB      MOCLDY    19  16  85 NW15      29.91R WCI   5
$$

NDZ018>021-031>035-040>046-250100-
SOUTHWEST NORTH DAKOTA

CITY           SKY/WX    TMP DP  RH WIND       PRES   REMARKS
BISMARCK       CLOUDY    25  19  78 NW13      29.91R WCI  14
6HR MIN TEMP:  25; 6HR MAX TEMP:  27;

DICKINSON      MOCLDY    17  12  80 NW10      29.87R WCI   5
GARRISON         N/A     20  16  84 NW16      29.90R WCI   6
6HR MIN TEMP:  20; 6HR MAX TEMP:  23;

HETTINGER ARPT CLOUDY    18  13  80 NW13      29.89R WCI   5
$$

NDZ004>008-012>016-024-026-027-054-250100-
NORTHEAST NORTH DAKOTA

CITY           SKY/WX    TMP DP  RH WIND       PRES   REMARKS
GRAND FORKS    CLOUDY    28  22  78 CALM      29.89S
GRND FRKS AFB  CLOUDY    27  25  93 CALM      29.89S
DEVILS LAKE    CLOUDY    24  21  88 NW9       29.88S WCI  14
$$

NDZ022-023-025-028>030-036>039-047>053-250100-
SOUTHEAST NORTH DAKOTA

CITY           SKY/WX    TMP DP  RH WIND       PRES   REMARKS
FARGO          CLOUDY    29  24  82 N13       29.87R WCI  19
6HR MIN TEMP:  28; 6HR MAX TEMP:  30;

JAMESTOWN      CLOUDY    23  19  85 N15       29.86R WCI  10
$$




USA.gov is the U.S. government's official web portal to all federal, state and local government web resources and services.